GW1804 Weather Reports


time (UTC)temp
C
wind
direction
speed
KPH
gust
KPH
rain 1hr
cm
rain 24hr
cm
rain mn
cm
humidity
%
barometer
mb
20260901060536 20 0 0.0 0.0 0.00 0.00 0.00 87 1014.2
20260901060052 20 0 0.0 0.0 0.00 0.00 0.00 87 1014.1
20260901055531 20 0 0.0 0.0 0.00 0.00 0.00 87 1014.1
20260901055033 20 0 0.0 0.0 0.00 0.00 0.00 87 1014.2
20260901054600 20 0 0.0 0.0 0.00 0.00 0.00 87 1014.2
20260901054035 20 0 0.0 0.0 0.00 0.00 0.00 87 1014.1
20260901053535 20 0 0.0 0.0 0.00 0.00 0.00 87 1014.1
20260901053104 20 0 0.0 0.0 0.00 0.00 0.00 86 1014.1
20260901052533 20 0 0.0 1.6 0.00 0.00 0.00 86 1014.1
20260901052031 20 0 0.0 1.6 0.00 0.00 0.00 86 1014.1
20260901051554 20 0 0.0 1.6 0.00 0.00 0.00 86 1014.0
20260901051031 20 0 0.0 1.6 0.00 0.00 0.00 86 1014.1
20260901050531 20 0 0.0 0.0 0.00 0.00 0.00 86 1014.0
20260901050059 20 0 0.0 0.0 0.00 0.00 0.00 86 1014.0
20260901045533 20 0 0.0 0.0 0.00 0.00 0.00 86 1014.0
20260901045035 20 0 0.0 0.0 0.00 0.00 0.00 86 1014.1
20260901044604 20 0 0.0 0.0 0.00 0.00 0.00 86 1014.0
20260901044035 20 0 0.0 0.0 0.00 0.00 0.00 86 1014.1
20260901043532 20 0 0.0 0.0 0.00 0.00 0.00 85 1014.1
20260901043056 20 0 0.0 0.0 0.00 0.00 0.00 85 1014.1
20260901042535 20 0 0.0 0.0 0.00 0.00 0.00 86 1014.0
20260901042037 20 0 0.0 0.0 0.00 0.00 0.00 86 1014.0
20260901041617 20 0 0.0 0.0 0.00 0.00 0.00 86 1014.0
20260901041031 20 0 0.0 1.6 0.00 0.00 0.00 86 1014.0
20260901040533 21 0 0.0 1.6 0.00 0.00 0.00 86 1013.9
20260901040136 21 0 0.0 1.6 0.00 0.00 0.00 86 1013.9
20260901035534 21 0 0.0 3.2 0.00 0.00 0.00 86 1013.9
20260901035032 21 0 0.0 3.2 0.00 0.00 0.00 86 1013.8
20260901034556 21 205 0.0 3.2 0.00 0.00 0.00 85 1013.8
20260901034035 21 0 0.0 3.2 0.00 0.00 0.00 85 1013.7
20260901033535 21 0 0.0 1.6 0.00 0.00 0.00 85 1013.6
20260901033053 21 0 0.0 1.6 0.00 0.00 0.00 85 1013.6
20260901032535 21 215 0.0 3.2 0.00 0.00 0.00 84 1013.5
20260901032035 21 0 0.0 3.2 0.00 0.00 0.00 84 1013.4
20260901031551 21 0 0.0 3.2 0.00 0.00 0.00 83 1013.4
20260901031032 21 0 0.0 3.2 0.00 0.00 0.00 83 1013.4
20260901030535 21 261 0.0 1.6 0.00 0.00 0.00 83 1013.3
20260901030106 21 0 0.0 1.6 0.00 0.00 0.00 83 1013.3
20260901025531 21 0 0.0 3.2 0.00 0.00 0.00 82 1013.2
20260901025034 21 0 0.0 3.2 0.00 0.00 0.00 82 1013.1
20260901024556 21 261 0.0 3.2 0.00 0.00 0.00 82 1013.0
20260901024034 21 0 0.0 4.8 0.00 0.00 0.00 82 1013.0
20260901023530 21 261 0.0 4.8 0.00 0.00 0.00 82 1013.0
20260901023101 21 312 1.6 4.8 0.00 0.00 0.00 81 1012.9
20260901022534 22 238 1.6 6.4 0.00 0.00 0.00 81 1013.0
20260901022034 22 277 1.6 6.4 0.00 0.00 0.00 81 1012.9
20260901021550 22 253 1.6 6.4 0.00 0.00 0.00 81 1012.9
20260901021035 22 290 1.6 9.7 0.00 0.00 0.00 81 1012.8
20260901020533 22 321 3.2 9.7 0.00 0.00 0.00 80 1012.8
20260901020101 22 283 3.2 6.4 0.00 0.00 0.00 80 1012.7
20260901015533 22 288 1.6 8.0 0.00 0.00 0.00 80 1012.6
20260901015032 23 286 3.2 8.0 0.00 0.00 0.00 79 1012.6
20260901014557 23 289 3.2 9.7 0.00 0.00 0.00 79 1012.5
20260901014033 23 313 3.2 9.7 0.00 0.00 0.00 79 1012.5
20260901013532 23 280 3.2 9.7 0.00 0.00 0.00 79 1012.5
20260901013058 23 277 3.2 9.7 0.00 0.00 0.00 78 1012.6
20260901012532 23 303 4.8 11.3 0.00 0.00 0.00 78 1012.6
20260901012032 23 300 3.2 11.3 0.00 0.00 0.00 78 1012.7
20260901011552 23 270 4.8 11.3 0.00 0.00 0.00 77 1012.8
20260901011032 23 275 3.2 14.5 0.00 0.00 0.00 77 1012.7
20260901010534 23 265 4.8 14.5 0.00 0.00 0.00 75 1012.7
20260901010106 24 309 4.8 11.3 0.00 0.00 0.00 75 1012.8
20260901005532 24 253 4.8 11.3 0.00 0.00 0.00 74 1012.8
20260901005032 24 300 4.8 11.3 0.00 0.00 0.00 74 1012.9
20260901004600 24 271 4.8 11.3 0.00 0.00 0.00 74 1012.9
20260901004032 24 286 6.4 11.3 0.00 0.00 0.00 74 1012.9
20260901003533 24 296 3.2 12.9 0.00 0.00 0.00 74 1012.9
20260901003059 24 309 4.8 12.9 0.00 0.00 0.00 75 1012.9
20260901002533 25 269 4.8 12.9 0.00 0.00 0.00 75 1012.9
20260901002033 24 292 4.8 12.9 0.00 0.00 0.00 75 1012.9
20260901001551 25 246 4.8 12.9 0.00 0.00 0.00 75 1012.9
20260901001034 25 284 4.8 12.9 0.00 0.00 0.00 76 1012.9
20260901000532 25 300 6.4 12.9 0.00 0.00 0.00 76 1012.9
20260901000104 25 294 4.8 12.9 0.00 0.00 0.00 76 1012.9
20260831235532 25 298 6.4 17.7 0.00 0.00 0.00 75 1012.8
20260831235033 25 284 4.8 17.7 0.00 0.00 0.00 76 1012.9
20260831234556 25 267 6.4 17.7 0.00 0.00 0.00 76 1013.0
20260831234032 25 244 4.8 12.9 0.00 0.00 0.00 77 1013.0
20260831233534 25 262 6.4 12.9 0.00 0.00 0.00 75 1013.1
20260831233055 25 310 4.8 14.5 0.00 0.00 0.00 76 1013.0
20260831232532 25 290 8.0 14.5 0.00 0.00 0.00 75 1013.0
20260831232033 25 289 4.8 14.5 0.00 0.00 0.00 75 1012.9
20260831231553 25 279 4.8 14.5 0.00 0.00 0.00 75 1012.9
20260831231035 25 244 8.0 17.7 0.00 0.00 0.00 75 1012.9
20260831230533 25 296 4.8 17.7 0.00 0.00 0.00 75 1012.9
20260831230113 25 266 6.4 17.7 0.00 0.00 0.00 75 1012.9
20260831225532 25 296 6.4 16.1 0.00 0.00 0.00 75 1012.9
20260831225033 25 319 6.4 16.1 0.00 0.00 0.00 75 1013.0
20260831224559 25 306 6.4 14.5 0.00 0.00 0.00 75 1013.0
20260831224032 25 325 6.4 16.1 0.00 0.00 0.00 75 1013.0
20260831223534 25 314 8.0 16.1 0.00 0.00 0.00 75 1013.0
20260831223107 25 294 8.0 16.1 0.00 0.00 0.00 75 1013.1
20260831222532 25 292 6.4 16.1 0.00 0.00 0.00 75 1013.1
20260831222033 25 277 8.0 16.1 0.00 0.00 0.00 75 1013.2
20260831221603 25 234 6.4 16.1 0.00 0.00 0.00 74 1013.3
20260831221032 25 281 6.4 16.1 0.00 0.00 0.00 75 1013.4
20260831220534 25 264 8.0 16.1 0.00 0.00 0.00 74 1013.4
20260831220100 26 273 8.0 14.5 0.00 0.00 0.00 73 1013.5
20260831215532 26 250 8.0 14.5 0.00 0.00 0.00 74 1013.4
20260831215032 26 304 8.0 14.5 0.00 0.00 0.00 73 1013.4
20260831214607 26 277 8.0 14.5 0.00 0.00 0.00 73 1013.4
20260831214032 26 261 4.8 14.5 0.00 0.00 0.00 74 1013.4
20260831213533 26 279 6.4 16.1 0.00 0.00 0.00 74 1013.5
20260831213053 26 224 6.4 16.1 0.00 0.00 0.00 74 1013.5
20260831212533 25 290 8.0 17.7 0.00 0.00 0.00 74 1013.5
20260831212033 25 330 6.4 17.7 0.00 0.00 0.00 74 1013.6
20260831211601 25 268 6.4 17.7 0.00 0.00 0.00 74 1013.6
20260831211035 26 360 6.4 16.1 0.00 0.00 0.00 74 1013.6
20260831210531 25 281 8.0 16.1 0.00 0.00 0.00 74 1013.8
20260831210057 25 292 6.4 16.1 0.00 0.00 0.00 75 1013.8
20260831205536 25 284 6.4 14.5 0.00 0.00 0.00 74 1013.8
20260831205036 25 252 6.4 16.1 0.00 0.00 0.00 74 1013.8
20260831204558 25 227 6.4 16.1 0.00 0.00 0.00 74 1013.9
20260831204039 25 260 6.4 14.5 0.00 0.00 0.00 74 1013.9
20260831203536 25 272 4.8 14.5 0.00 0.00 0.00 75 1013.9
20260831203050 25 255 8.0 19.3 0.00 0.00 0.00 75 1014.0
20260831202533 25 268 8.0 19.3 0.00 0.00 0.00 75 1013.9
20260831202036 25 224 4.8 16.1 0.00 0.00 0.00 76 1014.0
20260831201553 25 279 8.0 16.1 0.00 0.00 0.00 75 1014.0
20260831201036 25 312 6.4 14.5 0.00 0.00 0.00 75 1014.0
20260831200535 25 265 6.4 14.5 0.00 0.00 0.00 74 1014.0
20260831200110 25 266 6.4 14.5 0.00 0.00 0.00 74 1014.0
20260831195535 25 188 6.4 14.5 0.00 0.00 0.00 75 1014.0
20260831195037 25 248 6.4 14.5 0.00 0.00 0.00 75 1013.9
20260831194640 25 278 6.4 12.9 0.00 0.00 0.00 76 1014.0
20260831194037 25 265 6.4 14.5 0.00 0.00 0.00 76 1014.1
20260831193536 25 301 6.4 14.5 0.00 0.00 0.00 76 1014.0
20260831193100 25 277 6.4 14.5 0.00 0.00 0.00 75 1014.1
20260831192535 25 261 3.2 14.5 0.00 0.00 0.00 76 1014.1
20260831192035 25 277 6.4 14.5 0.00 0.00 0.00 76 1014.2
20260831191558 25 307 6.4 12.9 0.00 0.00 0.00 75 1014.1
20260831191040 25 263 4.8 12.9 0.00 0.00 0.00 77 1014.2
20260831190535 25 217 4.8 12.9 0.00 0.00 0.00 77 1014.2
20260831190109 25 267 6.4 17.7 0.00 0.00 0.00 77 1014.1
20260831185535 25 210 6.4 17.7 0.00 0.00 0.00 77 1014.1
20260831185035 25 247 6.4 14.5 0.00 0.00 0.00 77 1014.2
20260831184559 25 306 4.8 12.9 0.00 0.00 0.00 77 1014.1
20260831184034 25 250 4.8 12.9 0.00 0.00 0.00 77 1014.1
20260831183536 24 239 4.8 12.9 0.00 0.00 0.00 77 1014.2
20260831183110 24 292 4.8 14.5 0.00 0.00 0.00 78 1014.2
20260831182536 24 259 6.4 14.5 0.00 0.00 0.00 78 1014.2
20260831182033 24 219 6.4 14.5 0.00 0.00 0.00 78 1014.2
20260831181609 24 265 4.8 12.9 0.00 0.00 0.00 79 1014.1
20260831181036 24 298 4.8 12.9 0.00 0.00 0.00 79 1014.1
20260831180533 23 286 4.8 16.1 0.00 0.00 0.00 79 1014.1
20260831180115 23 302 6.4 16.1 0.00 0.00 0.00 78 1014.1
20260831175537 23 277 6.4 12.9 0.00 0.00 0.00 79 1014.1
20260831175037 23 222 4.8 12.9 0.00 0.00 0.00 79 1014.1
20260831174556 23 217 4.8 12.9 0.00 0.00 0.00 80 1014.0
20260831174036 23 236 4.8 12.9 0.00 0.00 0.00 79 1014.0
20260831173541 23 298 4.8 12.9 0.00 0.00 0.00 81 1013.9
20260831173054 23 256 4.8 12.9 0.00 0.00 0.00 81 1013.9
20260831172535 23 234 3.2 11.3 0.00 0.00 0.00 81 1013.9
20260831172035 23 273 4.8 11.3 0.00 0.00 0.00 81 1013.9
20260831171602 23 277 3.2 11.3 0.00 0.00 0.00 81 1013.9
20260831171035 23 273 4.8 11.3 0.00 0.00 0.00 81 1013.8
20260831170535 23 265 4.8 11.3 0.00 0.00 0.00 82 1013.8
20260831170101 23 265 4.8 9.7 0.00 0.00 0.00 82 1013.8
20260831165535 22 219 3.2 11.3 0.00 0.00 0.00 82 1013.8
20260831165035 22 317 4.8 11.3 0.00 0.00 0.00 81 1013.8
20260831164558 22 296 3.2 11.3 0.00 0.00 0.00 82 1013.8
20260831164037 22 293 4.8 11.3 0.00 0.00 0.00 82 1013.7
20260831163536 22 296 4.8 9.7 0.00 0.00 0.00 82 1013.7
20260831163103 22 297 3.2 9.7 0.00 0.00 0.00 83 1013.7
20260831162535 22 266 3.2 9.7 0.00 0.00 0.00 83 1013.7
20260831162035 22 263 3.2 9.7 0.00 0.00 0.00 83 1013.6
20260831161605 22 251 0.0 6.4 0.00 0.00 0.00 83 1013.6
20260831161035 22 0 0.0 6.4 0.00 0.00 0.00 83 1013.6
20260831160535 22 228 1.6 8.0 0.00 0.00 0.00 83 1013.5
20260831160059 22 0 1.6 8.0 0.00 0.00 0.00 84 1013.6
20260831155532 22 306 1.6 4.8 0.00 0.00 0.00 84 1013.6
20260831155036 21 288 0.0 6.4 0.00 0.00 0.00 84 1013.6
20260831154628 21 0 0.0 6.4 0.00 0.00 0.00 84 1013.7
20260831154036 21 246 1.6 6.4 0.00 0.00 0.00 84 1013.7
20260831153535 21 249 1.6 6.4 0.00 0.00 0.00 85 1013.6
20260831153058 21 0 0.0 4.8 0.00 0.00 0.00 85 1013.6
20260831152538 21 216 3.2 4.8 0.00 0.00 0.00 85 1013.6
20260831152035 21 205 1.6 4.8 0.00 0.00 0.00 85 1013.5
20260831151615 21 0 0.0 3.2 0.00 0.00 0.00 85 1013.5
20260831151035 21 0 0.0 0.0 0.00 0.00 0.00 86 1013.5
20260831150538 21 0 0.0 3.2 0.00 0.00 0.00 86 1013.5
20260831150100 21 0 0.0 3.2 0.00 0.00 0.00 86 1013.5
20260831145537 20 0 0.0 3.2 0.00 0.00 0.00 86 1013.4
20260831145036 20 0 0.0 3.2 0.00 0.00 0.00 86 1013.4
20260831144600 20 0 0.0 1.6 0.00 0.00 0.00 86 1013.4
20260831144036 20 0 0.0 1.6 0.00 0.00 0.00 86 1013.4
20260831143533 20 0 0.0 1.6 0.00 0.00 0.00 86 1013.4
20260831143054 20 0 0.0 1.6 0.00 0.00 0.00 86 1013.4
20260831142536 20 0 0.0 1.6 0.00 0.00 0.00 86 1013.3
20260831142035 20 0 0.0 0.0 0.00 0.00 0.00 86 1013.2
20260831141602 20 0 0.0 1.6 0.00 0.00 0.00 86 1013.2
20260831141038 20 0 0.0 1.6 0.00 0.00 0.00 86 1013.1
20260831140534 20 0 0.0 1.6 0.00 0.00 0.00 86 1013.0
20260831140100 20 0 0.0 1.6 0.00 0.00 0.00 85 1012.9
20260831135536 20 0 0.0 0.0 0.00 0.00 0.00 85 1012.8
20260831135039 20 0 0.0 0.0 0.00 0.00 0.00 85 1012.7
20260831134557 20 0 0.0 0.0 0.00 0.00 0.00 85 1012.7
20260831134035 20 0 0.0 0.0 0.00 0.00 0.00 85 1012.6
20260831133535 20 0 0.0 0.0 0.00 0.00 0.00 85 1012.5
20260831133058 20 0 0.0 0.0 0.00 0.00 0.00 85 1012.5
20260831132535 20 0 0.0 3.2 0.00 0.00 0.00 85 1012.4
20260831132035 20 0 0.0 3.2 0.00 0.00 0.00 85 1012.3
20260831131555 20 201 0.0 3.2 0.00 0.00 0.00 84 1012.3
20260831131035 21 0 0.0 3.2 0.00 0.00 0.00 85 1012.3
20260831130536 21 0 0.0 0.0 0.00 0.00 0.00 85 1012.2
20260831125535 21 0 0.0 1.6 0.00 0.00 0.00 85 1012.3
20260831125032 21 0 0.0 0.0 0.00 0.00 0.00 85 1012.2
20260831124604 21 0 0.0 0.0 0.00 0.00 0.00 85 1012.2
20260831124032 21 0 0.0 0.0 0.00 0.00 0.00 85 1012.2
20260831123535 21 0 0.0 0.0 0.00 0.00 0.00 85 1012.2
20260831123057 21 0 0.0 0.0 0.00 0.00 0.00 85 1012.2
20260831122533 21 0 0.0 0.0 0.00 0.00 0.00 85 1012.3
20260831122034 21 0 0.0 0.0 0.00 0.00 0.00 85 1012.2
20260831121603 21 0 0.0 0.0 0.00 0.00 0.00 85 1012.2
20260831121035 21 0 0.0 0.0 0.00 0.00 0.00 85 1012.2
20260831120535 21 0 0.0 0.0 0.00 0.00 0.00 85 1012.1
20260831120057 21 0 0.0 0.0 0.00 0.00 0.00 86 1012.1
20260831115535 21 0 0.0 0.0 0.00 0.00 0.00 86 1012.2
20260831115036 21 0 0.0 1.6 0.00 0.00 0.00 86 1012.2
20260831114558 21 0 0.0 1.6 0.00 0.00 0.00 86 1012.2
20260831114036 21 0 0.0 0.0 0.00 0.00 0.00 86 1012.2
20260831113535 21 0 0.0 0.0 0.00 0.00 0.00 86 1012.2
20260831113105 21 0 0.0 1.6 0.00 0.00 0.00 86 1012.2
20260831112536 21 0 0.0 1.6 0.00 0.00 0.00 87 1012.2
20260831112043 21 0 0.0 1.6 0.00 0.00 0.00 87 1012.3
20260831111600 21 0 0.0 1.6 0.00 0.00 0.00 87 1012.2
20260831111035 21 0 0.0 1.6 0.00 0.00 0.00 87 1012.3
20260831110535 21 0 0.0 1.6 0.00 0.00 0.00 87 1012.4
20260831110057 21 0 0.0 1.6 0.00 0.00 0.00 87 1012.3
20260831105535 21 0 0.0 1.6 0.00 0.00 0.00 87 1012.2
20260831105032 21 0 0.0 1.6 0.00 0.00 0.00 87 1012.3
20260831104607 21 0 0.0 1.6 0.00 0.00 0.00 87 1012.3
20260831104032 21 0 0.0 4.8 0.00 0.00 0.00 88 1012.3
20260831103535 21 0 0.0 4.8 0.00 0.00 0.00 88 1012.4
20260831103053 21 0 1.6 4.8 0.00 0.00 0.00 87 1012.4
20260831102535 21 0 0.0 3.2 0.00 0.00 0.00 88 1012.4
20260831102034 21 0 0.0 6.4 0.00 0.00 0.00 88 1012.4
20260831101602 21 0 0.0 8.0 0.00 0.00 0.00 88 1012.3
20260831101036 21 242 3.2 8.0 0.00 0.00 0.00 88 1012.4
20260831100534 21 0 0.0 9.7 0.00 0.00 0.00 88 1012.3
20260831100108 21 0 1.6 9.7 0.00 0.00 0.00 88 1012.4
20260831095535 21 225 1.6 8.0 0.00 0.00 0.00 89 1012.4
20260831095035 21 192 1.6 4.8 0.00 0.00 0.00 89 1012.4
20260831094553 21 0 0.0 4.8 0.00 0.00 0.00 89 1012.4
20260831094035 21 196 0.0 4.8 0.00 0.00 0.00 89 1012.4
20260831093536 21 215 0.0 3.2 0.00 0.00 0.00 89 1012.4
20260831093053 21 0 0.0 3.2 0.00 0.00 0.00 89 1012.4
20260831092535 21 0 0.0 3.2 0.00 0.00 0.00 90 1012.4
20260831092040 21 185 0.0 3.2 0.00 0.00 0.00 90 1012.4
20260831091559 21 180 0.0 1.6 0.00 0.00 0.00 90 1012.4
20260831091035 21 180 0.0 1.6 0.00 0.00 0.00 90 1012.5
20260831090535 21 0 0.0 3.2 0.00 0.00 0.00 90 1012.4
20260831090056 21 0 0.0 3.2 0.00 0.00 0.00 90 1012.4
20260831085535 21 0 0.0 1.6 0.00 0.00 0.00 90 1012.4
20260831085036 21 0 0.0 1.6 0.00 0.00 0.00 89 1012.4
20260831084612 21 0 0.0 1.6 0.00 0.00 0.00 89 1012.5
20260831084033 21 0 0.0 1.6 0.00 0.00 0.00 89 1012.5
20260831083539 21 0 0.0 3.2 0.00 0.00 0.00 89 1012.5
20260831083104 21 194 0.0 3.2 0.00 0.00 0.00 89 1012.5
20260831082539 21 190 0.0 3.2 0.00 0.00 0.00 89 1012.5
20260831082035 21 0 0.0 1.6 0.00 0.00 0.00 90 1012.6
20260831081556 21 0 0.0 1.6 0.00 0.00 0.00 90 1012.5
20260831081035 21 0 0.0 3.2 0.00 0.00 0.00 90 1012.7
20260831080532 21 0 0.0 3.2 0.00 0.00 0.00 90 1012.5
20260831080105 21 265 0.0 3.2 0.00 0.00 0.00 90 1012.7
20260831075534 21 0 0.0 1.6 0.00 0.00 0.00 90 1012.7
20260831075035 21 0 0.0 1.6 0.00 0.00 0.00 90 1012.7
20260831074557 21 0 0.0 3.2 0.00 0.00 0.00 90 1012.7
20260831074035 21 0 0.0 3.2 0.00 0.00 0.00 90 1012.7
20260831073532 21 0 0.0 3.2 0.00 0.00 0.00 90 1012.8
20260831073104 21 0 0.0 3.2 0.00 0.00 0.00 89 1012.8
20260831072537 21 0 0.0 1.6 0.00 0.00 0.00 89 1012.7
20260831072038 21 0 0.0 0.0 0.00 0.00 0.00 89 1012.8
20260831071557 21 0 0.0 0.0 0.00 0.00 0.00 89 1012.8
20260831071035 21 0 0.0 0.0 0.00 0.00 0.00 89 1012.8
20260831070535 21 0 0.0 0.0 0.00 0.00 0.00 89 1012.7
20260831070109 21 0 0.0 0.0 0.00 0.00 0.00 89 1012.8
20260831065531 21 0 0.0 0.0 0.00 0.00 0.00 89 1012.7
20260831065037 21 0 0.0 0.0 0.00 0.00 0.00 89 1012.7
20260831064559 21 0 0.0 0.0 0.00 0.00 0.00 89 1012.7
20260831064036 21 0 0.0 1.6 0.00 0.00 0.00 89 1012.6
20260831063535 21 0 0.0 3.2 0.00 0.00 0.00 89 1012.6
20260831063056 21 0 0.0 3.2 0.00 0.00 0.00 88 1012.6
20260831062534 21 0 0.0 3.2 0.00 0.00 0.00 88 1012.6
20260831062034 21 0 0.0 1.6 0.00 0.00 0.00 88 1012.5
20260831061554 21 0 0.0 1.6 0.00 0.00 0.00 88 1012.5
20260831061034 21 0 0.0 1.6 0.00 0.00 0.00 88 1012.5